CDT,Max TemperatureF,Mean TemperatureF,Min TemperatureF,Max Dew PointF,MeanDew PointF,Min DewpointF,Max Humidity, Mean Humidity, Min Humidity, Max Sea Level PressureIn, Mean Sea Level PressureIn, Min Sea Level PressureIn, Max VisibilityMiles, Mean VisibilityMiles, Min VisibilityMiles, Max Wind SpeedMPH, Mean Wind SpeedMPH, Max Gust SpeedMPH,PrecipitationIn, CloudCover, Events, WindDirDegrees
2012-10-1,71,56,41,43,35,32,81,48,23,29.94,29.90,29.87,10,10,5,22,6,29,0.00,0,,348
2012-10-2,71,54,37,43,33,27,81,51,19,29.97,29.92,29.86,10,10,7,9,4,,0.00,0,,9
2012-10-3,77,55,33,43,34,28,93,51,17,29.93,29.89,29.83,10,10,10,20,4,24,0.00,0,,162
2012-10-4,60,48,37,36,31,27,71,52,35,30.22,30.07,29.87,10,10,10,28,14,37,0.00,3,Rain,286
2012-10-5,50,41,32,27,19,9,75,49,19,30.22,30.19,30.14,10,10,10,23,11,33,0.00,1,,299
2012-10-6,41,36,30,28,23,19,80,59,42,30.28,30.23,30.18,10,10,10,17,12,25,0.00,7,,321
2012-10-7,51,33,15,23,17,10,86,52,19,30.24,30.12,29.95,10,10,10,16,4,24,0.00,0,,225
2012-10-8,68,52,35,45,27,19,82,46,16,29.95,29.81,29.70,10,10,7,26,12,37,0.05,4,Rain,209
2012-10-9,50,41,32,46,37,25,93,74,46,30.04,29.87,29.76,10,10,7,21,9,26,0.14,6,Rain,285
2012-10-10,51,40,28,30,25,19,86,60,28,30.16,30.07,29.96,10,10,10,14,7,22,0.00,2,,249
2012-10-11,48,40,32,32,26,16,61,50,34,30.37,30.11,29.92,10,10,10,17,12,24,0.00,2,Rain,319
2012-10-12,53,38,23,32,18,7,86,50,15,30.41,30.29,30.05,10,10,10,17,6,28,0.00,2,Rain,132
2012-10-13,68,56,44,61,52,36,100,85,64,30.01,29.76,29.66,10,7,2,18,11,26,0.10,7,Rain,182
2012-10-14,55,50,44,54,42,32,94,73,51,29.91,29.75,29.63,10,9,3,28,13,34,0.03,6,Rain,338
2012-10-15,64,48,32,39,34,30,100,61,30,29.99,29.90,29.79,10,10,10,10,5,,0.00,0,,211
2012-10-16,68,56,44,45,42,37,87,65,40,29.79,29.53,29.39,10,10,10,12,8,,0.00,1,,164
2012-10-17,59,52,44,50,40,32,87,66,36,29.41,29.34,29.25,10,10,7,24,9,32,0.01,4,Rain,249
2012-10-18,46,42,37,43,39,34,93,87,66,29.37,29.29,29.22,10,7,2,23,14,31,0.02,8,Rain,288
2012-10-19,46,44,42,43,42,41,100,93,87,29.76,29.59,29.40,10,8,3,17,7,23,0.00,8,Rain,321
2012-10-20,50,44,37,41,40,36,100,87,71,29.85,29.80,29.75,10,8,1,12,4,,0.00,7,,174
2012-10-21,73,56,39,52,44,37,93,72,43,29.87,29.81,29.78,10,10,7,20,10,24,0.00,1,,142
2012-10-22,69,61,53,59,53,46,94,77,56,29.87,29.83,29.79,10,9,5,16,7,20,0.00,7,,71
2012-10-23,64,62,59,63,59,55,94,89,73,29.79,29.75,29.70,10,6,1,16,10,22,0.00,8,,168
2012-10-24,62,56,50,61,54,46,100,93,87,29.82,29.76,29.71,10,3,0,16,7,21,0.18,8,Fog-Rain,5
2012-10-25,50,42,33,46,34,27,100,83,70,30.22,29.88,29.56,10,8,2,26,18,39,0.77,8,Rain,327
2012-10-26,37,34,30,28,25,21,81,69,56,30.40,30.34,30.23,10,10,10,16,11,23,0.00,5,,295
2012-10-27,39,31,23,28,23,16,100,71,41,30.38,30.33,30.28,10,10,7,6,1,,0.00,1,,241
2012-10-28,44,35,26,27,23,19,100,69,37,30.35,30.30,30.25,10,10,10,12,2,16,0.00,2,,155
2012-10-29,46,34,23,28,25,19,93,70,49,30.30,30.26,30.19,10,10,10,16,6,21,0.00,4,,127
2012-10-30,46,36,26,28,25,21,93,65,40,30.19,30.11,30.02,10,10,7,13,4,17,0.00,2,,12
2012-10-31,51,37,23,27,21,14,86,60,24,30.04,30.00,29.94,10,10,5,15,5,25,0.00,1,,328